Location: Abraham Lincoln Continuation High School
(33.9711°N, 117.3662°W)
Time: 10:57:44
(UTC+00:00)

Iridium 4 Rocket - Visible Passes

Search period start: 20 June 2021 00:00
Search period end: 30 June 2021 00:00
Orbit: 583 x 906 km, 86.9° (Epoch: 19 June)

Date Brightness Start Highest point End Pass type
(mag) Time Alt. Az. Time Alt. Az. Time Alt. Az.
24 Jun 6.4 11:55:27 10° ENE 11:56:57 12° E 11:58:28 10° E visible
26 Jun 5.8 12:06:56 10° NNE 12:10:23 22° E 12:14:01 10° SE visible
29 Jun 6.1 11:37:29 10° NE 11:40:19 16° E 11:43:18 10° ESE visible
